788  
ASUS42 KMHX 201026  
RWRMHX  
WEATHER ROUNDUP FOR EASTERN NORTH CAROLINA  
NATIONAL WEATHER SERVICE NEWPORT/MOREHEAD CITY NC  
600 AM EDT THU SEP 20 2018  
 
NOTE: "FAIR" INDICATES FEW OR NO CLOUDS BELOW 12,000 FEET  
WITH NO SIGNIFICANT WEATHER AND/OR S TO VISIBILITY
 
 
NCZ015>017-031-032-045>047-102-103-201100-  
NORTH COAST  
 
CITY SKY/WX TMP DP RH WIND PRES REMARKS
 
EDENTON FAIR 71 70 97 NE3 30.07R FOG  
ELIZABETH CITY FAIR 73 72 96 N6 30.06R  
KITTY HAWK PTSUNNY 73 69 88 NE5 30.04R  
MANTEO FAIR 73 69 87 NE7 30.05R  
 

 
 
NCZ045>047-081-094-103-104-201100-  
CENTRAL COAST  
 
CITY SKY/WX TMP DP RH WIND PRES REMARKS
 
FRISCO FAIR 75 69 81 NE6 30.03R  
 

 
 
NCZ095-097-098-100-101-201100-  
SOUTHERN COAST  
 
CITY SKY/WX TMP DP RH WIND PRES REMARKS
 
BEAUFORT FAIR 72 71 97 N3 30.04R  
CEDAR ISLAND NOT AVBL  
JACKSONVILLE FAIR 71 70 96 CALM 30.04R  
PINEY ISLAND NOT AVBL  
WILMINGTON FAIR 70 68 93 NE3 30.04R  
 

 
 
NCZ011>013-027>030-043-044-078>080-089-090>093-098-201100-  
COASTAL PLAIN  
 
CITY SKY/WX TMP DP RH WIND PRES REMARKS
 
AHOSKIE MOCLDY 66 66 100 CALM 30.08R  
CLINTON NOT AVBL  
ELIZABETHTOWN NOT AVBL  
GOLDSBORO NOT AVBL  
GREENVILLE FOG 68 68 100 CALM 30.08R VSB 1/4  
HAVELOCK NOT AVBL  
KENANSVILLE FAIR 68 66 94 CALM 30.07R FOG  
KINSTON N/A 68 67 99 CALM 30.07R FOG  
NEW BERN FAIR 69 69 100 CALM 30.06R FOG  
RICHLANDS NOT AVBL  
ROCKY MOUNT FOG 68 68 100 CALM 30.07R VSB 1/4  
WASHINGTON FAIR 67 66 97 CALM 30.06R FOG  
WHITEVILLE NOT AVBL  
 

 
 
AMZ130-135-150-152-154-156-158-170-250-252-270-ANZ085-086-088-633-658-670-201100-  
MARINE OBSERVATIONS  
 
STATION/POSITION TIME TEMP WIND PRES WAVE SWELL
 
AIR SEA DIR/SP/G HT/PER HT/PER  
(UTC) (F) (DEG/KT/KT) (MB) (FT/S) (FT/S)  
CHESAPEAKE LIGHT NOT AVBL  
64 E VA BEACH 0950 74 74 40/ 14/ 16 1017.7 6/ 8 5/ 8  
DUCK 1000 74 79 1017.4  
2 E DUCK 1000 79 N/A 3/ 8 2/11  
OREGON INLET 0954 75 79 1017.0  
13E OREGON INLT 0946 79 N/A 4/ 9 3/ 9  
HATTERAS CG 1000 76 81 1017.0  
DIAMOND BUOY 1000 77 20/ 14/ 17 1017.1  
CAPE LOOKOUT 1000 40/ 9/ 10 1017.4  
BEAUFORT LAB 1000 73 81 1017.8  
30 SE NEW RVR IN 1008 80 82 70/ 8/ 10 N/A  
30 SE NEW RVR IN 1000 82 N/A 3/ 8  
27 SE WRIGHTSVLE 1008 78 81 70/ 8/ 14 1016.9  
5 SE WRIGHTSVLE 1008 79 81 360/ 6/ 8 N/A  
225 S CAPE HAT 1010 84 350/ 8/ 10 1015.7  
41 SE CHARLESTON 1000 81 83 20/ 2/ 4 1016.7  
 

 
 
 
CLICK HERE TO GO TO PREVIOUS BULLETINS.

The Nexlab NC Page Main Text Page